{"data":{"norad_id":66893,"epoch":"2026-09-20T07:28:03.912960Z","epoch_age_seconds":100632,"freshness":"FRESH","line1":"1 66893U 25283R   26263.31115640  .00014842  00000+0  44951-3 0  9996","line2":"2 66893  53.1577 198.6093 0001581  76.2591 283.8588 15.34401692 45661","mean_motion":15.34401692,"eccentricity":0.0001581,"inclination_deg":53.1577,"raan_deg":198.6093,"arg_perigee_deg":76.2591,"mean_anomaly_deg":283.8588,"bstar":0.00044951,"rev_number":4566,"period_min":93.847654594479,"perigee_km":461.61667518426,"apogee_km":463.77974727805,"semimajor_km":6840.8352112312,"source":"CELESTRAK","updated_at":"2026-09-21T09:00:36.052514Z"}}